Location: Santaluz Observatory
(32.9930°N, 117.1510°W)
Time: 08:54:55
(UTC-07:00)

Hubble Space Telescope - Visible Passes

Search period start: 29 April 2016 00:00
Search period end: 09 May 2016 00:00
Orbit: 539 x 543 km, 28.5° (Epoch: 28 April)

Date Brightness Start Highest point End Pass type
(mag) Time Alt. Az. Time Alt. Az. Time Alt. Az.
29 Apr 2.6 04:11:42 19° SSE 04:11:42 19° SSE 04:14:16 10° ESE visible
30 Apr 2.5 04:02:30 21° SE 04:02:30 21° SE 04:04:54 10° ESE visible
01 May 2.6 03:53:17 22° SE 03:53:17 22° SE 03:55:26 10° ESE visible
01 May 1.4 05:28:55 10° WSW 05:32:51 44° S 05:36:48 10° ESE visible
02 May 2.7 03:44:05 21° ESE 03:44:05 21° ESE 03:45:56 10° ESE visible
02 May 1.3 05:19:28 11° WSW 05:23:13 44° S 05:27:10 10° ESE visible
03 May 2.9 03:34:53 19° ESE 03:34:53 19° ESE 03:36:23 10° ESE visible
03 May 1.3 05:10:17 14° WSW 05:13:34 44° S 05:17:31 10° ESE visible
04 May 3.1 03:25:45 17° ESE 03:25:45 17° ESE 03:26:48 10° ESE visible
04 May 1.3 05:01:08 17° WSW 05:03:56 42° S 05:07:51 10° ESE visible
05 May 3.4 03:16:39 13° ESE 03:16:39 13° ESE 03:17:11 10° ESE visible
05 May 1.3 04:52:03 21° WSW 04:54:16 40° S 04:58:09 10° ESE visible
06 May 1.4 04:43:02 26° SW 04:44:36 36° S 04:48:26 10° ESE visible
07 May 1.6 04:34:08 29° SW 04:34:57 32° SSW 04:38:39 10° SE visible
08 May 1.8 04:25:23 28° SSW 04:25:23 28° SSW 04:28:50 10° SE visible
